Terminal Aerodrome Forecast
Issued by NWS

Home | Current Version | Previous Version | Graphics & Text | Print | Product List | Glossary On
Versions: 1 2 3 4 5 6 7 8 9 10 11 12 13 14 15 16 17 18 19 20
000
FTUS43 KOAX 230500
TAFCDR
TAF
KCDR 230520Z 2306/2406 15008KT P6SM VCSH FEW020 SCT050
     FM230800 17015G25KT P6SM FEW050
     FM232200 16013G22KT P6SM VCTS SCT100CB=

USA.gov is the U.S. government's official web portal to all federal, state and local government web resources and services.